,,,PA_Meas_PMT16A,,PR_Meas_QMR101_102,,RH_Meas_QMH101,,SR_Meas_QMS101,,TA_Meas_QMH101,,GenWind,,GenWind,
date,time,status,PA,status,PR,status,RH,status,SR,status,TA,status,DirAvg,status,SpdAvg,
2009-08-24, 00:00:04,VALID,1009.92,VALID,0,VALID,97.4876,VALID,0.105969,VALID,23.5558,VALID,24,VALID,0,
2009-08-24, 00:01:04,VALID,1009.91,VALID,0,VALID,97.5105,VALID,0.105969,VALID,23.5558,VALID,24,VALID,0,
2009-08-24, 00:02:04,VALID,1009.89,VALID,0,VALID,97.4876,VALID,0.105969,VALID,23.5363,VALID,24,VALID,0,
2009-08-24, 00:03:04,VALID,1009.89,VALID,0,VALID,97.4953,VALID,0.105969,VALID,23.5169,VALID,24,VALID,0,
2009-08-24, 00:04:04,VALID,1009.9,VALID,0,VALID,97.48,VALID,0.105969,VALID,23.5169,VALID,24,VALID,0,
2009-08-24, 00:05:04,VALID,1009.88,VALID,0,VALID,97.4876,VALID,0.105969,VALID,23.5169,VALID,24,VALID,0,
2009-08-24, 00:06:04,VALID,1009.89,VALID,0,VALID,97.4876,VALID,0.105969,VALID,23.5169,VALID,24,VALID,0,
2009-08-24, 00:07:04,VALID,1009.91,VALID,0,VALID,97.5181,VALID,0,VALID,23.5186,VALID,24,VALID,0,
2009-08-24, 00:08:04,VALID,1009.91,VALID,0,VALID,97.4953,VALID,0,VALID,23.5204,VALID,24,VALID,0,
2009-08-24, 00:09:04,VALID,1009.93,VALID,0,VALID,97.5029,VALID,0,VALID,23.4797,VALID,24,VALID,0,
2009-08-24, 00:10:04,VALID,1009.9,VALID,0,VALID,97.4953,VALID,0,VALID,23.4797,VALID,24,VALID,0,
2009-08-24, 00:11:04,VALID,1009.9,VALID,0,VALID,97.4953,VALID,0,VALID,23.4602,VALID,24,VALID,0,
2009-08-24, 00:12:04,VALID,1009.89,VALID,0,VALID,97.5105,VALID,0.105969,VALID,23.4407,VALID,24,VALID,0,
2009-08-24, 00:13:04,VALID,1009.88,VALID,0,VALID,97.5029,VALID,0,VALID,23.4212,VALID,24,VALID,0,
2009-08-24, 00:14:04,VALID,1009.9,VALID,0,VALID,97.4953,VALID,0,VALID,23.4017,VALID,24,VALID,0,
2009-08-24, 00:15:04,VALID,1009.91,VALID,0,VALID,97.4876,VALID,0,VALID,23.4017,VALID,24,VALID,0,
2009-08-24, 00:16:04,VALID,1009.91,VALID,0,VALID,97.5105,VALID,0,VALID,23.4017,VALID,24,VALID,0,
2009-08-24, 00:17:04,VALID,1009.89,VALID,0,VALID,97.4876,VALID,0,VALID,23.3823,VALID,24,VALID,0,
2009-08-24, 00:18:04,VALID,1009.92,VALID,0,VALID,97.5105,VALID,0,VALID,23.3823,VALID,24,VALID,0,
2009-08-24, 00:19:04,VALID,1009.93,VALID,0,VALID,97.5334,VALID,0,VALID,23.4035,VALID,24,VALID,0,
2009-08-24, 00:20:04,VALID,1009.9,VALID,0,VALID,97.5334,VALID,0,VALID,23.3628,VALID,24,VALID,0,
2009-08-24, 00:21:04,VALID,1009.89,VALID,0,VALID,97.5563,VALID,0,VALID,23.3628,VALID,24,VALID,0,
2009-08-24, 00:22:04,VALID,1009.89,VALID,0,VALID,97.541,VALID,0,VALID,23.3451,VALID,24,VALID,0,
2009-08-24, 00:23:04,VALID,1009.88,VALID,0,VALID,97.5486,VALID,0,VALID,23.3451,VALID,24,VALID,0,
2009-08-24, 00:24:04,VALID,1009.85,VALID,0,VALID,97.5563,VALID,0,VALID,23.3451,VALID,24,VALID,0,
2009-08-24, 00:25:04,VALID,1009.81,VALID,0,VALID,97.541,VALID,0,VALID,23.2848,VALID,24,VALID,0,
2009-08-24, 00:26:04,VALID,1009.79,VALID,0,VALID,97.541,VALID,0,VALID,23.2654,VALID,24,VALID,0,
2009-08-24, 00:27:04,VALID,1009.79,VALID,0,VALID,97.5334,VALID,0,VALID,23.2848,VALID,24,VALID,0,
2009-08-24, 00:28:04,VALID,1009.74,VALID,0,VALID,97.5639,VALID,0,VALID,23.2654,VALID,24,VALID,0,
2009-08-24, 00:29:04,VALID,1009.73,VALID,0,VALID,97.5563,VALID,0,VALID,23.2459,VALID,24,VALID,0,
2009-08-24, 00:30:04,VALID,1009.71,VALID,0,VALID,97.5715,VALID,0,VALID,23.2654,VALID,24,VALID,0,
2009-08-24, 00:31:04,VALID,1009.7,VALID,0,VALID,97.5868,VALID,0,VALID,23.2459,VALID,24,VALID,0,
2009-08-24, 00:32:04,VALID,1009.7,VALID,0,VALID,97.5715,VALID,0,VALID,23.2459,VALID,24,VALID,0,
2009-08-24, 00:33:04,VALID,1009.67,VALID,0,VALID,97.5944,VALID,0,VALID,23.2459,VALID,24,VALID,0,
2009-08-24, 00:34:04,VALID,1009.66,VALID,0,VALID,97.5791,VALID,0,VALID,23.2459,VALID,24,VALID,0,
2009-08-24, 00:35:04,VALID,1009.64,VALID,0,VALID,97.5868,VALID,0,VALID,23.2671,VALID,24,VALID,0,
2009-08-24, 00:36:04,VALID,1009.61,VALID,0,VALID,97.602,VALID,0,VALID,23.2654,VALID,24,VALID,0,
2009-08-24, 00:37:04,VALID,1009.61,VALID,0,VALID,97.5944,VALID,0,VALID,23.2654,VALID,24,VALID,0,
2009-08-24, 00:38:04,VALID,1009.58,VALID,0,VALID,97.6325,VALID,0,VALID,23.2654,VALID,24,VALID,0,
2009-08-24, 00:39:04,VALID,1009.59,VALID,0,VALID,97.6325,VALID,0,VALID,23.2654,VALID,24,VALID,0,
2009-08-24, 00:40:04,VALID,1009.58,VALID,0,VALID,97.6325,VALID,0,VALID,23.2459,VALID,24,VALID,0,
2009-08-24, 00:41:04,VALID,1009.56,VALID,0,VALID,97.6554,VALID,0,VALID,23.2459,VALID,24,VALID,0,
2009-08-24, 00:42:04,VALID,1009.56,VALID,0,VALID,97.6478,VALID,0,VALID,23.2459,VALID,24,VALID,0,
2009-08-24, 00:43:04,VALID,1009.57,VALID,0,VALID,97.663,VALID,0,VALID,23.2264,VALID,24,VALID,0,
2009-08-24, 00:44:04,VALID,1009.59,VALID,0,VALID,97.663,VALID,0,VALID,23.2264,VALID,24,VALID,0,
2009-08-24, 00:45:04,VALID,1009.6,VALID,0,VALID,97.6706,VALID,0,VALID,23.2069,VALID,24,VALID,0,
2009-08-24, 00:46:04,VALID,1009.57,VALID,0,VALID,97.6478,VALID,0,VALID,23.1874,VALID,24,VALID,0,
2009-08-24, 00:47:04,VALID,1009.55,VALID,0,VALID,97.6706,VALID,0,VALID,23.1874,VALID,24,VALID,0,
2009-08-24, 00:48:04,VALID,1009.53,VALID,0,VALID,97.6554,VALID,0,VALID,23.1874,VALID,24,VALID,0,
2009-08-24, 00:49:04,VALID,1009.51,VALID,0,VALID,97.663,VALID,0,VALID,23.2087,VALID,24,VALID,0,
2009-08-24, 00:50:04,VALID,1009.5,VALID,0,VALID,97.6859,VALID,0,VALID,23.1874,VALID,24,VALID,0,
2009-08-24, 00:51:04,VALID,1009.48,VALID,0,VALID,97.6783,VALID,0,VALID,23.1874,VALID,24,VALID,0,
2009-08-24, 00:52:04,VALID,1009.51,VALID,0,VALID,97.6859,VALID,0,VALID,23.1679,VALID,24,VALID,0,
2009-08-24, 00:53:04,VALID,1009.49,VALID,0,VALID,97.7012,VALID,0,VALID,23.1679,VALID,24,VALID,0,
2009-08-24, 00:54:04,VALID,1009.51,VALID,0,VALID,97.6935,VALID,0,VALID,23.1679,VALID,15,VALID,0.603516,
2009-08-24, 00:55:04,VALID,1009.51,VALID,0,VALID,97.6935,VALID,0,VALID,23.1874,VALID,15,VALID,0.414844,
2009-08-24, 00:56:04,VALID,1009.52,VALID,0,VALID,97.7012,VALID,0,VALID,23.1874,VALID,15,VALID,0.434375,
2009-08-24, 00:57:04,VALID,1009.5,VALID,0,VALID,97.7164,VALID,0,VALID,23.1874,VALID,15,VALID,0.534766,
2009-08-24, 00:58:04,VALID,1009.48,VALID,0,VALID,97.724,VALID,0,VALID,23.2069,VALID,12,VALID,0.549219,
2009-08-24, 00:59:04,VALID,1009.46,VALID,0,VALID,97.724,VALID,0,VALID,23.1874,VALID,2,VALID,0.678516,
2009-08-24, 01:00:04,VALID,1009.45,VALID,0,VALID,97.7545,VALID,0,VALID,23.1679,VALID,19,VALID,0.709766,
2009-08-24, 01:01:04,VALID,1009.42,VALID,0,VALID,97.7545,VALID,0,VALID,23.129,VALID,23,VALID,0.490234,
2009-08-24, 01:02:04,VALID,1009.4,VALID,0,VALID,97.7393,VALID,0,VALID,23.129,VALID,23,VALID,0.376172,
2009-08-24, 01:03:04,VALID,1009.37,VALID,0,VALID,97.7545,VALID,0,VALID,23.1095,VALID,23,VALID,0.202734,
2009-08-24, 01:04:04,VALID,1009.35,VALID,0,VALID,97.7317,VALID,0,VALID,23.129,VALID,23,VALID,0.176953,
2009-08-24, 01:05:04,VALID,1009.34,VALID,0,VALID,97.7622,VALID,0,VALID,23.1307,VALID,23,VALID,0,
2009-08-24, 01:06:04,VALID,1009.35,VALID,0,VALID,97.7469,VALID,0,VALID,23.1095,VALID,23,VALID,0.0945313,
2009-08-24, 01:07:04,VALID,1009.34,VALID,0,VALID,97.7469,VALID,0,VALID,23.129,VALID,23,VALID,0,
2009-08-24, 01:08:04,VALID,1009.34,VALID,0,VALID,97.7317,VALID,0,VALID,23.1307,VALID,23,VALID,0,
2009-08-24, 01:09:04,VALID,1009.33,VALID,0,VALID,97.7545,VALID,0,VALID,23.1095,VALID,23,VALID,0,
2009-08-24, 01:10:04,VALID,1009.29,VALID,0,VALID,97.7545,VALID,0,VALID,23.1095,VALID,23,VALID,0,
2009-08-24, 01:11:04,VALID,1009.33,VALID,0,VALID,97.7698,VALID,0,VALID,23.1112,VALID,23,VALID,0,
2009-08-24, 01:12:04,VALID,1009.33,VALID,0,VALID,97.7545,VALID,0,VALID,23.09,VALID,23,VALID,0,
2009-08-24, 01:13:04,VALID,1009.3,VALID,0,VALID,97.7774,VALID,0,VALID,23.0705,VALID,23,VALID,0,
2009-08-24, 01:14:04,VALID,1009.3,VALID,0,VALID,97.7622,VALID,0,VALID,23.0705,VALID,23,VALID,0,
2009-08-24, 01:15:04,VALID,1009.3,VALID,0,VALID,97.7622,VALID,0,VALID,23.0705,VALID,23,VALID,0,
2009-08-24, 01:16:04,VALID,1009.31,VALID,0,VALID,97.7622,VALID,0,VALID,23.0918,VALID,23,VALID,0,
2009-08-24, 01:17:04,VALID,1009.3,VALID,0,VALID,97.7469,VALID,0,VALID,23.1112,VALID,23,VALID,0,
2009-08-24, 01:18:04,VALID,1009.29,VALID,0,VALID,97.7774,VALID,0,VALID,23.1112,VALID,23,VALID,0,
2009-08-24, 01:19:04,VALID,1009.28,VALID,0,VALID,97.7927,VALID,0,VALID,23.0705,VALID,23,VALID,0,
2009-08-24, 01:20:04,VALID,1009.28,VALID,0,VALID,97.785,VALID,0,VALID,23.0705,VALID,23,VALID,0,
2009-08-24, 01:21:04,VALID,1009.26,VALID,0,VALID,97.7698,VALID,0,VALID,23.09,VALID,23,VALID,0,
2009-08-24, 01:22:04,VALID,1009.22,VALID,0,VALID,97.7698,VALID,0,VALID,23.09,VALID,23,VALID,0,
2009-08-24, 01:23:04,VALID,1009.19,VALID,0,VALID,97.7622,VALID,0,VALID,23.09,VALID,23,VALID,0,
2009-08-24, 01:24:04,VALID,1009.18,VALID,0,VALID,97.7698,VALID,0,VALID,23.1095,VALID,23,VALID,0,
2009-08-24, 01:25:04,VALID,1009.18,VALID,0,VALID,97.8003,VALID,0,VALID,23.1095,VALID,23,VALID,0,
2009-08-24, 01:26:04,VALID,1009.18,VALID,0,VALID,97.7774,VALID,0,VALID,23.1095,VALID,23,VALID,0,
2009-08-24, 01:27:04,VALID,1009.17,VALID,0,VALID,97.785,VALID,0,VALID,23.1095,VALID,23,VALID,0,
2009-08-24, 01:28:04,VALID,1009.14,VALID,0,VALID,97.8003,VALID,0,VALID,23.1095,VALID,23,VALID,0,
2009-08-24, 01:29:04,VALID,1009.16,VALID,0,VALID,97.8003,VALID,0,VALID,23.1095,VALID,23,VALID,0,
2009-08-24, 01:30:04,VALID,1009.15,VALID,0,VALID,97.8155,VALID,0,VALID,23.1095,VALID,23,VALID,0,
2009-08-24, 01:31:04,VALID,1009.19,VALID,0,VALID,97.8003,VALID,0,VALID,23.09,VALID,23,VALID,0,
2009-08-24, 01:32:04,VALID,1009.19,VALID,0,VALID,97.8003,VALID,0,VALID,23.09,VALID,23,VALID,0,
2009-08-24, 01:33:04,VALID,1009.18,VALID,0,VALID,97.7927,VALID,0,VALID,23.09,VALID,23,VALID,0,
2009-08-24, 01:34:04,VALID,1009.19,VALID,0,VALID,97.8079,VALID,0,VALID,23.0705,VALID,23,VALID,0,
2009-08-24, 01:35:04,VALID,1009.17,VALID,0,VALID,97.8155,VALID,0,VALID,23.09,VALID,23,VALID,0,
2009-08-24, 01:36:04,VALID,1009.15,VALID,0,VALID,97.8079,VALID,0,VALID,23.0705,VALID,23,VALID,0,
2009-08-24, 01:37:04,VALID,1009.15,VALID,0,VALID,97.8079,VALID,0,VALID,23.0705,VALID,23,VALID,0,
2009-08-24, 01:38:04,VALID,1009.17,VALID,0,VALID,97.8079,VALID,0,VALID,23.0723,VALID,23,VALID,0,
2009-08-24, 01:39:04,VALID,1009.19,VALID,0,VALID,97.8079,VALID,0,VALID,23.0705,VALID,23,VALID,0,
2009-08-24, 01:40:04,VALID,1009.17,VALID,0,VALID,97.8232,VALID,0,VALID,23.0705,VALID,23,VALID,0,
2009-08-24, 01:41:04,VALID,1009.16,VALID,0,VALID,97.8079,VALID,0,VALID,23.0705,VALID,23,VALID,0,
2009-08-24, 01:42:04,VALID,1009.18,VALID,0,VALID,97.8155,VALID,0,VALID,23.0705,VALID,23,VALID,0,
2009-08-24, 01:43:04,VALID,1009.19,VALID,0,VALID,97.8155,VALID,0,VALID,23.0918,VALID,23,VALID,0,
2009-08-24, 01:44:04,VALID,1009.19,VALID,0,VALID,97.7927,VALID,0,VALID,23.0705,VALID,23,VALID,0,
2009-08-24, 01:45:04,VALID,1009.17,VALID,0,VALID,97.8003,VALID,0,VALID,23.0918,VALID,23,VALID,0,
2009-08-24, 01:46:04,VALID,1009.15,VALID,0,VALID,97.8079,VALID,0,VALID,23.0705,VALID,23,VALID,0,
2009-08-24, 01:47:04,VALID,1009.15,VALID,0,VALID,97.8155,VALID,0,VALID,23.0705,VALID,23,VALID,0,
2009-08-24, 01:48:04,VALID,1009.13,VALID,0,VALID,97.8079,VALID,0,VALID,23.0723,VALID,23,VALID,0,
2009-08-24, 01:49:04,VALID,1009.1,VALID,0,VALID,97.8155,VALID,0,VALID,23.0723,VALID,23,VALID,0,
2009-08-24, 01:50:04,VALID,1009.08,VALID,0,VALID,97.8003,VALID,0,VALID,23.0528,VALID,23,VALID,0,
2009-08-24, 01:51:04,VALID,1009.08,VALID,0,VALID,97.8079,VALID,0,VALID,23.0511,VALID,23,VALID,0,
2009-08-24, 01:52:04,VALID,1009.08,VALID,0,VALID,97.8003,VALID,0,VALID,23.0723,VALID,23,VALID,0,
2009-08-24, 01:53:04,VALID,1009.06,VALID,0,VALID,97.8155,VALID,0,VALID,23.0511,VALID,14,VALID,0,
2009-08-24, 01:54:04,VALID,1009.06,VALID,0,VALID,97.8003,VALID,0,VALID,23.0511,VALID,14,VALID,0,
2009-08-24, 01:55:04,VALID,1009.07,VALID,0,VALID,97.8155,VALID,0,VALID,23.0511,VALID,14,VALID,0,
2009-08-24, 01:56:04,VALID,1009.05,VALID,0,VALID,97.8232,VALID,0,VALID,23.0333,VALID,14,VALID,0,
2009-08-24, 01:57:04,VALID,1009.04,VALID,0,VALID,97.8155,VALID,0,VALID,23.0121,VALID,14,VALID,0,
2009-08-24, 01:58:04,VALID,1009.06,VALID,0,VALID,97.8232,VALID,0,VALID,23.0316,VALID,14,VALID,0,
2009-08-24, 01:59:04,VALID,1009.04,VALID,0,VALID,97.8308,VALID,0,VALID,23.0333,VALID,14,VALID,0,
2009-08-24, 02:00:04,VALID,1009.05,VALID,0,VALID,97.8308,VALID,0,VALID,23.0316,VALID,14,VALID,0,
2009-08-24, 02:01:04,VALID,1009.02,VALID,0,VALID,97.846,VALID,0,VALID,23.0333,VALID,14,VALID,0,
2009-08-24, 02:02:04,VALID,1009,VALID,0,VALID,97.8232,VALID,0,VALID,23.0121,VALID,14,VALID,0,
2009-08-24, 02:03:04,VALID,1009.01,VALID,0,VALID,97.8079,VALID,0,VALID,23.0138,VALID,14,VALID,0,
2009-08-24, 02:04:04,VALID,1009.02,VALID,0,VALID,97.8537,VALID,0,VALID,22.9731,VALID,14,VALID,0,
2009-08-24, 02:05:04,VALID,1009.03,VALID,0,VALID,97.8689,VALID,0,VALID,22.9536,VALID,14,VALID,0,
2009-08-24, 02:06:04,VALID,1009.04,VALID,0,VALID,97.8384,VALID,0,VALID,22.9536,VALID,14,VALID,0,
2009-08-24, 02:07:04,VALID,1009.05,VALID,0,VALID,97.8308,VALID,0,VALID,22.9731,VALID,14,VALID,0,
2009-08-24, 02:08:04,VALID,1009.08,VALID,0,VALID,97.8537,VALID,0,VALID,22.9731,VALID,14,VALID,0,
2009-08-24, 02:09:04,VALID,1009.06,VALID,0,VALID,97.8308,VALID,0.105969,VALID,22.9519,VALID,14,VALID,0,
2009-08-24, 02:10:04,VALID,1009.06,VALID,0,VALID,97.8155,VALID,0.105969,VALID,22.9926,VALID,14,VALID,0,
2009-08-24, 02:11:04,VALID,1009.03,VALID,0,VALID,97.8232,VALID,0,VALID,22.9926,VALID,14,VALID,0,
2009-08-24, 02:12:04,VALID,1009.03,VALID,0,VALID,97.846,VALID,0.105969,VALID,22.9714,VALID,14,VALID,0,
2009-08-24, 02:13:04,VALID,1009,VALID,0,VALID,97.8155,VALID,0,VALID,22.9926,VALID,14,VALID,0,
2009-08-24, 02:14:04,VALID,1008.99,VALID,0,VALID,97.8384,VALID,0.105969,VALID,22.9714,VALID,14,VALID,0,
2009-08-24, 02:15:04,VALID,1008.96,VALID,0,VALID,97.8308,VALID,0.105969,VALID,22.9926,VALID,14,VALID,0,
2009-08-24, 02:16:04,VALID,1008.96,VALID,0,VALID,97.846,VALID,0.105969,VALID,22.9714,VALID,14,VALID,0,
2009-08-24, 02:17:04,VALID,1008.96,VALID,0,VALID,97.846,VALID,0,VALID,22.9926,VALID,14,VALID,0,
2009-08-24, 02:18:04,VALID,1008.93,VALID,0,VALID,97.8308,VALID,0.105969,VALID,22.9714,VALID,14,VALID,0,
2009-08-24, 02:19:04,VALID,1008.94,VALID,0,VALID,97.8232,VALID,0.105969,VALID,22.9909,VALID,14,VALID,0,
2009-08-24, 02:20:04,VALID,1008.94,VALID,0,VALID,97.8232,VALID,0.105969,VALID,22.9909,VALID,14,VALID,0,
2009-08-24, 02:21:04,VALID,1008.94,VALID,0,VALID,97.8155,VALID,0.105969,VALID,22.9926,VALID,14,VALID,0,
2009-08-24, 02:22:04,VALID,1008.92,VALID,0,VALID,97.8384,VALID,0,VALID,23.0138,VALID,14,VALID,0,
2009-08-24, 02:23:04,VALID,1008.94,VALID,0,VALID,97.846,VALID,0,VALID,22.9731,VALID,14,VALID,0,
2009-08-24, 02:24:04,VALID,1008.93,VALID,0,VALID,97.8308,VALID,0,VALID,22.9749,VALID,14,VALID,0,
2009-08-24, 02:25:04,VALID,1008.95,VALID,0,VALID,97.846,VALID,0,VALID,22.9536,VALID,14,VALID,0,
2009-08-24, 02:26:04,VALID,1008.97,VALID,0,VALID,97.8537,VALID,0,VALID,22.9359,VALID,14,VALID,0,
2009-08-24, 02:27:04,VALID,1008.97,VALID,0,VALID,97.846,VALID,0,VALID,22.9359,VALID,14,VALID,0,
2009-08-24, 02:28:04,VALID,1008.96,VALID,0,VALID,97.8537,VALID,0,VALID,22.9147,VALID,14,VALID,0,
2009-08-24, 02:29:04,VALID,1008.98,VALID,0,VALID,97.8537,VALID,0,VALID,22.8952,VALID,14,VALID,0,
2009-08-24, 02:30:04,VALID,1008.97,VALID,0,VALID,97.8689,VALID,0,VALID,22.8757,VALID,14,VALID,0,
2009-08-24, 02:31:04,VALID,1008.93,VALID,0,VALID,97.846,VALID,0,VALID,22.8757,VALID,14,VALID,0,
2009-08-24, 02:32:04,VALID,1008.97,VALID,0,VALID,97.8613,VALID,0,VALID,22.8562,VALID,14,VALID,0,
2009-08-24, 02:33:04,VALID,1008.93,VALID,0,VALID,97.8689,VALID,0,VALID,22.8562,VALID,14,VALID,0,
2009-08-24, 02:34:04,VALID,1008.92,VALID,0,VALID,97.8232,VALID,0,VALID,22.8562,VALID,14,VALID,0,
2009-08-24, 02:35:04,VALID,1008.89,VALID,0,VALID,97.8689,VALID,0,VALID,22.8775,VALID,14,VALID,0,
2009-08-24, 02:36:04,VALID,1008.9,VALID,0,VALID,97.8613,VALID,0,VALID,22.8368,VALID,14,VALID,0,
2009-08-24, 02:37:04,VALID,1008.9,VALID,0,VALID,97.8689,VALID,0,VALID,22.8368,VALID,14,VALID,0,
2009-08-24, 02:38:04,VALID,1008.93,VALID,0,VALID,97.8613,VALID,0,VALID,22.8173,VALID,14,VALID,0,
2009-08-24, 02:39:04,VALID,1008.92,VALID,0,VALID,97.8537,VALID,0,VALID,22.8368,VALID,14,VALID,0,
2009-08-24, 02:40:04,VALID,1008.92,VALID,0,VALID,97.846,VALID,0,VALID,22.8368,VALID,14,VALID,0,
2009-08-24, 02:41:04,VALID,1008.93,VALID,0,VALID,97.8613,VALID,0,VALID,22.8368,VALID,14,VALID,0,
2009-08-24, 02:42:04,VALID,1008.94,VALID,0,VALID,97.846,VALID,0,VALID,22.858,VALID,14,VALID,0,
2009-08-24, 02:43:04,VALID,1008.97,VALID,0,VALID,97.846,VALID,0,VALID,22.8775,VALID,14,VALID,0,
2009-08-24, 02:44:04,VALID,1008.99,VALID,0,VALID,97.8537,VALID,0,VALID,22.8368,VALID,14,VALID,0,
2009-08-24, 02:45:04,VALID,1009.03,VALID,0,VALID,97.8613,VALID,0,VALID,22.8757,VALID,14,VALID,0,
2009-08-24, 02:46:04,VALID,1009,VALID,0,VALID,97.8613,VALID,0,VALID,22.8562,VALID,14,VALID,0,
2009-08-24, 02:47:04,VALID,1009.02,VALID,0,VALID,97.8537,VALID,0,VALID,22.8368,VALID,14,VALID,0,
2009-08-24, 02:48:04,VALID,1009.03,VALID,0,VALID,97.8842,VALID,0,VALID,22.858,VALID,14,VALID,0,
2009-08-24, 02:49:04,VALID,1009.05,VALID,0,VALID,97.8537,VALID,0,VALID,22.8562,VALID,14,VALID,0,
2009-08-24, 02:50:04,VALID,1009.05,VALID,0,VALID,97.8537,VALID,0,VALID,22.8562,VALID,14,VALID,0,
2009-08-24, 02:51:04,VALID,1009.08,VALID,0,VALID,97.8613,VALID,0,VALID,22.8562,VALID,14,VALID,0,
2009-08-24, 02:52:04,VALID,1009.1,VALID,0,VALID,97.8613,VALID,0,VALID,22.8368,VALID,8,VALID,0,
2009-08-24, 02:53:04,VALID,1009.09,VALID,0,VALID,97.8765,VALID,0,VALID,22.858,VALID,8,VALID,0,
2009-08-24, 02:54:04,VALID,1009.11,VALID,0,VALID,97.8689,VALID,0,VALID,22.8385,VALID,8,VALID,0,
2009-08-24, 02:55:04,VALID,1009.12,VALID,0,VALID,97.8842,VALID,0,VALID,22.819,VALID,8,VALID,0,
2009-08-24, 02:56:04,VALID,1009.09,VALID,0,VALID,97.8765,VALID,0,VALID,22.8173,VALID,8,VALID,0,
2009-08-24, 02:57:04,VALID,1009.09,VALID,0,VALID,97.8689,VALID,0,VALID,22.8173,VALID,8,VALID,0,
2009-08-24, 02:58:04,VALID,1009.07,VALID,0,VALID,97.8689,VALID,0,VALID,22.8173,VALID,8,VALID,0,
2009-08-24, 02:59:04,VALID,1009.06,VALID,0,VALID,97.8689,VALID,0,VALID,22.8173,VALID,8,VALID,0,
2009-08-24, 03:00:04,VALID,1009.07,VALID,0,VALID,97.8537,VALID,0,VALID,22.8173,VALID,8,VALID,0,
2009-08-24, 03:01:04,VALID,1009.06,VALID,0,VALID,97.846,VALID,0,VALID,22.8173,VALID,8,VALID,0,
2009-08-24, 03:02:04,VALID,1009.04,VALID,0,VALID,97.8613,VALID,0,VALID,22.8173,VALID,8,VALID,0,
2009-08-24, 03:03:04,VALID,1009.02,VALID,0,VALID,97.8842,VALID,0,VALID,22.7978,VALID,8,VALID,0,
2009-08-24, 03:04:04,VALID,1009.05,VALID,0,VALID,97.8765,VALID,0,VALID,22.8173,VALID,8,VALID,0,
2009-08-24, 03:05:04,VALID,1009.05,VALID,0,VALID,97.8842,VALID,0,VALID,22.7783,VALID,165,VALID,0,
2009-08-24, 03:06:04,VALID,1009.01,VALID,0,VALID,97.8918,VALID,0,VALID,22.7978,VALID,158,VALID,0,
2009-08-24, 03:07:04,VALID,1009.05,VALID,0,VALID,97.8689,VALID,0,VALID,22.8173,VALID,158,VALID,0,
2009-08-24, 03:08:04,VALID,1009.06,VALID,0,VALID,97.8765,VALID,0,VALID,22.7978,VALID,158,VALID,0,
2009-08-24, 03:09:04,VALID,1009.06,VALID,0,VALID,97.8689,VALID,0,VALID,22.8173,VALID,158,VALID,0,
2009-08-24, 03:10:04,VALID,1009.08,VALID,0,VALID,97.8384,VALID,0,VALID,22.858,VALID,158,VALID,0,
2009-08-24, 03:11:04,VALID,1009.05,VALID,0,VALID,97.8537,VALID,0,VALID,22.8562,VALID,156,VALID,0,
2009-08-24, 03:12:04,VALID,1009.07,VALID,0,VALID,97.8384,VALID,0,VALID,22.8562,VALID,153,VALID,0,
2009-08-24, 03:13:04,VALID,1009.1,VALID,0,VALID,97.8613,VALID,0,VALID,22.8562,VALID,153,VALID,0,
2009-08-24, 03:14:04,VALID,1009.13,VALID,0,VALID,97.8765,VALID,0,VALID,22.8757,VALID,153,VALID,0,
2009-08-24, 03:15:04,VALID,1009.15,VALID,0,VALID,97.8613,VALID,0.105969,VALID,22.8952,VALID,153,VALID,0,
2009-08-24, 03:16:04,VALID,1009.16,VALID,0,VALID,97.8842,VALID,0,VALID,22.8757,VALID,153,VALID,0,
2009-08-24, 03:17:04,VALID,1009.18,VALID,0,VALID,97.8384,VALID,0,VALID,22.8952,VALID,153,VALID,0,
2009-08-24, 03:18:04,VALID,1009.17,VALID,0,VALID,97.8689,VALID,0,VALID,22.8952,VALID,153,VALID,0,
2009-08-24, 03:19:04,VALID,1009.14,VALID,0,VALID,97.846,VALID,0,VALID,22.9147,VALID,3,VALID,0,
2009-08-24, 03:20:04,VALID,1009.17,VALID,0,VALID,97.8384,VALID,0,VALID,22.9342,VALID,3,VALID,0,
2009-08-24, 03:21:04,VALID,1009.18,VALID,0,VALID,97.8384,VALID,0,VALID,22.9536,VALID,2,VALID,0,
2009-08-24, 03:22:04,VALID,1009.14,VALID,0,VALID,97.8308,VALID,0,VALID,22.9926,VALID,2,VALID,0,
2009-08-24, 03:23:04,VALID,1009.12,VALID,0,VALID,97.8689,VALID,0,VALID,22.9926,VALID,2,VALID,0,
2009-08-24, 03:24:04,VALID,1009.08,VALID,0,VALID,97.8384,VALID,0,VALID,22.9926,VALID,2,VALID,0,
2009-08-24, 03:25:04,VALID,1009.08,VALID,0,VALID,97.8384,VALID,0.105969,VALID,22.9926,VALID,2,VALID,0,
2009-08-24, 03:26:04,VALID,1009.09,VALID,0,VALID,97.8537,VALID,0,VALID,23.0121,VALID,2,VALID,0,
2009-08-24, 03:27:04,VALID,1009.1,VALID,0,VALID,97.846,VALID,0,VALID,23.0121,VALID,2,VALID,0,
2009-08-24, 03:28:04,VALID,1009.05,VALID,0,VALID,97.8613,VALID,0,VALID,23.0138,VALID,2,VALID,0,
2009-08-24, 03:29:04,VALID,1009.06,VALID,0,VALID,97.8537,VALID,0,VALID,23.0121,VALID,2,VALID,0,
2009-08-24, 03:30:04,VALID,1009.09,VALID,0,VALID,97.8537,VALID,0,VALID,22.9926,VALID,2,VALID,0,
2009-08-24, 03:31:04,VALID,1009.07,VALID,0,VALID,97.8537,VALID,0,VALID,23.0121,VALID,2,VALID,0,
2009-08-24, 03:32:04,VALID,1009.08,VALID,0,VALID,97.8613,VALID,0,VALID,22.9731,VALID,2,VALID,0,
2009-08-24, 03:33:04,VALID,1009.09,VALID,0,VALID,97.8689,VALID,0,VALID,22.9731,VALID,2,VALID,0,
2009-08-24, 03:34:04,VALID,1009.09,VALID,0,VALID,97.8537,VALID,0,VALID,22.9926,VALID,2,VALID,0,
2009-08-24, 03:35:04,VALID,1009.1,VALID,0,VALID,97.8384,VALID,0,VALID,23.0316,VALID,2,VALID,0,
2009-08-24, 03:36:04,VALID,1009.04,VALID,0,VALID,97.8155,VALID,0,VALID,23.0511,VALID,2,VALID,0,
2009-08-24, 03:37:04,VALID,1009.07,VALID,0,VALID,97.846,VALID,0,VALID,23.0121,VALID,2,VALID,0,
2009-08-24, 03:38:04,VALID,1009.05,VALID,0,VALID,97.8613,VALID,0,VALID,23.0316,VALID,2,VALID,0,
2009-08-24, 03:39:04,VALID,1009.06,VALID,0,VALID,97.8689,VALID,0,VALID,22.9926,VALID,2,VALID,0,
2009-08-24, 03:40:04,VALID,1009.04,VALID,0,VALID,97.8689,VALID,0,VALID,22.9926,VALID,2,VALID,0,
2009-08-24, 03:41:04,VALID,1009.05,VALID,0,VALID,97.846,VALID,0,VALID,23.0121,VALID,2,VALID,0,
2009-08-24, 03:42:04,VALID,1009.07,VALID,0,VALID,97.846,VALID,0,VALID,23.0333,VALID,2,VALID,0,
2009-08-24, 03:43:04,VALID,1009.09,VALID,0,VALID,97.8613,VALID,0,VALID,23.0316,VALID,2,VALID,0,
2009-08-24, 03:44:04,VALID,1009.1,VALID,0,VALID,97.8384,VALID,0,VALID,23.0316,VALID,2,VALID,0,
2009-08-24, 03:45:04,VALID,1009.11,VALID,0,VALID,97.846,VALID,0,VALID,23.0511,VALID,2,VALID,0,
2009-08-24, 03:46:04,VALID,1009.11,VALID,0,VALID,97.8384,VALID,0,VALID,23.0511,VALID,2,VALID,0,
2009-08-24, 03:47:04,VALID,1009.13,VALID,0,VALID,97.8384,VALID,0,VALID,23.0511,VALID,2,VALID,0,
2009-08-24, 03:48:04,VALID,1009.14,VALID,0,VALID,97.8384,VALID,0,VALID,23.0705,VALID,2,VALID,0,
2009-08-24, 03:49:04,VALID,1009.13,VALID,0,VALID,97.8308,VALID,0,VALID,23.0705,VALID,2,VALID,0,
2009-08-24, 03:50:04,VALID,1009.1,VALID,0,VALID,97.8308,VALID,0,VALID,23.0705,VALID,2,VALID,0,
2009-08-24, 03:51:04,VALID,1009.09,VALID,0,VALID,97.8308,VALID,0,VALID,23.09,VALID,2,VALID,0,
2009-08-24, 03:52:04,VALID,1009.1,VALID,0,VALID,97.8308,VALID,0,VALID,23.1095,VALID,2,VALID,0,
2009-08-24, 03:53:04,VALID,1009.09,VALID,0,VALID,97.8384,VALID,0,VALID,23.1307,VALID,2,VALID,0,
2009-08-24, 03:54:04,VALID,1009.06,VALID,0,VALID,97.8232,VALID,0,VALID,23.0883,VALID,2,VALID,0,
2009-08-24, 03:55:04,VALID,1009.11,VALID,0,VALID,97.8232,VALID,0,VALID,23.129,VALID,2,VALID,0,
2009-08-24, 03:56:04,VALID,1009.1,VALID,0,VALID,97.846,VALID,0,VALID,23.1485,VALID,2,VALID,0,
2009-08-24, 03:57:04,VALID,1009.07,VALID,0,VALID,97.846,VALID,0,VALID,23.129,VALID,2,VALID,0,
2009-08-24, 03:58:04,VALID,1009.06,VALID,0,VALID,97.8384,VALID,0,VALID,23.129,VALID,2,VALID,0,
2009-08-24, 03:59:04,VALID,1009.05,VALID,0,VALID,97.8308,VALID,0.105969,VALID,23.1485,VALID,2,VALID,0,
2009-08-24, 04:00:04,VALID,1009.03,VALID,0,VALID,97.846,VALID,0,VALID,23.1485,VALID,2,VALID,0,